Weather in Mikhaylovka

Russia / Kemerovo Oblast     54°02′53″N   86°21′22″E
temp.,
°C
wind,
m/s
gust,
m/s
humid.,
%
clouds,
%
prec.,
mm/h
press.,
hPa
HPBL,
m
18 january, mon
mon1801:00−11sw5119394 0.3 1021368
04:00−12ssw5129796 0.1 1019321
07:00−11ssw5149498 0.1 1016440
10:00−12ssw5168424 0.0 1013412
13:00−8sw7148847 0.1 1011505
16:00−7sw61393100 0.9 1010832
19:00−8wsw51391100 1.1 1013927
22:00−12wsw51192100 0.1 1015600
19 january, tue
tue1901:00−15wsw4119595 0.2 1019338
04:00−19sw369880 0.0 1021133
07:00−21sw369768 0.0 1023107
10:00−22sw379754 0.0 1025135
13:00−17sw369150 0.0 1025228
16:00−17sw369124 0.0 1024243
19:00−21sw349455 0.0 102589
22:00−21sw349266 0.0 102597
20 january, wed
wed2001:00−22wsw229283 0.0 102634
04:00−24nw119416 0.0 102820
07:00−27nne119913 0.0 103019
10:00−27e11970 0.0 103219
13:00−20e129016 0.0 1031138
16:00−20ene119433 0.0 103073
19:00−24e118854 0.0 103020
22:00−22ene128683 0.0 102820
21 january, thu
thu2101:00−20e128792 0.0 102625
04:00−18ese1286100 0.0 102445
07:00−14se2496100 0.6 1021104
10:00−9s41294100 1.4 1019383
13:00−4sw61292100 1.9 1017900
16:00−6sw51191100 0.3 1017711
19:00−8sw3995100 0.3 1017351
22:00−8ssw3996100 0.0 1014284
22 january, fri
fri2201:00−7sw2596100 0.6 1010196
04:00−7sw1297100 1.0 100792
07:00−7wsw3895100 2.5 1007419
10:00−12wsw5129384 0.3 1010383
13:00−14wsw5109179 0.3 1014523
16:00−16sw489294 0.0 1017391
19:00−20sw389997 0.0 1019225
22:00−21sw41094100 0.0 1021244